Location: Unspecified
(0.0000°N, 0.0000°E)
Time: 19:05:45
(UTC+00:00)

KINEIS-1C - Visible Passes

Search period start: 14 January 2025 00:00
Search period end: 24 January 2025 00:00
Orbit: 632 x 636 km, 98.0° (Epoch: 14 January)

Date Brightness Start Highest point End Pass type
(mag) Time Alt. Az. Time Alt. Az. Time Alt. Az.
14 Jan ? 18:59:44 10° S 19:03:58 46° WSW 19:08:10 10° NNW visible
15 Jan ? 05:38:19 10° E 05:38:34 10° ESE 05:38:49 10° ESE visible
15 Jan ? 19:21:59 10° SSW 19:25:29 23° WSW 19:28:58 10° NW visible
16 Jan ? 19:45:26 10° WSW 19:46:59 12° WSW 19:48:33 10° W visible
18 Jan ? 18:49:34 10° S 18:53:56 67° WSW 18:58:17 10° NNW visible
19 Jan ? 19:11:32 10° SSW 19:15:26 32° WSW 19:19:21 10° NW visible
20 Jan ? 05:47:33 10° ENE 05:50:02 15° ESE 05:52:31 10° SE visible
20 Jan ? 19:34:11 10° SW 19:36:56 16° WSW 19:39:41 10° WNW visible
22 Jan ? 18:39:27 10° SSE 18:43:51 87° ENE 18:48:14 10° N visible
23 Jan ? 19:01:10 10° S 19:05:21 45° WSW 19:09:32 10° NNW visible
